Location: Keppel Henge
(44.7900°N, 80.9447°W)
Time: 01:55:58
(UTC-04:00)

OTV 5 (USA 277) - Pass Details

Date: 12 October 2017
Orbit: 404 x 417 km, 43.0° (Epoch: 07 September)

Event Time Altitude Azimuth Distance (km) Brightness Sun altitude
Rises 19:37:10 0° 236° (SW) 2,347 ? -10.2°
Reaches altitude 10° 19:39:23 10° 227° (SW) 1,487 ? -10.6°
Maximum altitude 19:42:28 34° 160° (SSE) 706 ? -11.2°
Enters shadow 19:44:25 18° 105° (ESE) 1,090 ? -11.5°
